Location: *
(13.0000°N, 151.6000°E)
Time: 15:59:27
(UTC+00:00)

Cosmos 2263 Rocket - Pass Details

Date: 01 April 2020
Orbit: 823 x 848 km, 71.0° (Epoch: 03 June)

Event Time Altitude Azimuth Distance (km) Brightness Sun altitude
Rises 19:08:26 0° 207° (SSW) 3,362 5.0 -10.7°
Reaches altitude 10° 19:10:55 10° 213° (SSW) 2,433 4.2 -10.1°
Maximum altitude 19:16:18 49° 287° (WNW) 1,061 2.4 -8.8°
Drops below altitude 10° 19:21:44 10° 2° (N) 2,450 4.7 -7.5°
Sets 19:24:15 0° 8° (N) 3,389 5.5 -6.9°
